Wind_Speed
44 47 48 47 44 44 45 44 44 44 43 42 40 40 40 40 40 39 36 36 36 37 36 35 36 33 31 34 31 29 27 23 22 25 25 19 18 16 15 19 16 14 12 14 15
43 44 43 44 44 45 44 43 43 42 44 44 41 39 39 40 40 37 34 34 33 33 32 32 33 32 31 30 24 23 21 20 19 17 20 15 17 17 16 24 15 13 10 10 11
43 43 42 43 43 44 44 44 42 43 43 41 40 38 39 38 35 32 30 31 32 30 30 30 30 27 23 21 16 15 14 18 9 17 14 10 13 17 18 17 9 12 13 12 12
44 43 43 42 40 41 43 43 42 41 41 41 40 39 40 39 35 33 29 29 31 30 28 25 26 21 14 12 10 8 9 4 15 18 8 11 9 18 23 14 15 17 18 17 11
42 43 43 42 42 41 41 42 41 39 39 39 39 39 41 39 38 33 30 29 29 26 24 24 24 17 13 11 12 5 7 17 15 10 7 14 12 17 18 16 21 25 27 14 11
41 41 42 42 42 42 41 41 40 38 37 36 36 38 36 35 34 32 31 31 28 26 23 26 23 18 13 13 15 12 17 25 17 14 22 18 18 21 19 21 29 24 20 10 8
40 42 42 42 42 41 40 40 39 36 35 34 35 35 31 32 28 28 29 30 28 27 26 25 25 17 14 15 15 13 19 24 19 17 19 18 19 27 26 25 29 37 19 9 8
40 41 42 43 43 43 41 39 37 35 34 32 32 33 26 29 28 27 28 28 29 29 28 26 23 15 16 17 18 20 19 20 26 25 25 23 24 22 20 19 26 29 17 11 11
45 43 43 42 42 43 42 40 38 36 33 32 34 30 29 28 28 28 26 26 29 28 26 24 21 18 19 19 18 21 20 22 25 27 29 27 25 23 17 16 20 18 19 12 11
50 48 47 44 43 42 41 40 38 38 37 36 34 32 32 28 29 26 25 26 26 25 23 23 22 21 22 21 20 23 22 22 26 30 29 29 23 18 16 8 11 10 14 16 15
55 53 51 49 46 45 43 40 39 40 41 39 37 34 33 29 29 28 27 27 28 25 24 24 25 25 20 19 22 22 22 23 23 26 23 27 22 16 14 8 7 12 10 13 15
62 59 56 54 51 49 46 43 41 39 39 38 39 37 36 33 32 31 30 30 29 27 27 27 27 25 22 20 22 25 22 23 21 21 23 22 17 14 11 4 8 8 14 10 15
68 65 62 59 57 54 50 45 43 41 41 41 41 38 38 37 36 35 33 32 31 30 29 27 26 24 25 22 21 21 22 22 24 25 26 20 20 15 17 21 14 11 16 10 12
71 69 67 65 62 59 54 52 48 47 45 42 43 38 42 38 38 37 35 33 34 33 30 26 26 26 27 20 22 18 19 21 21 22 23 27 31 26 26 23 22 18 16 6 8
71 71 71 69 66 63 60 56 52 50 49 43 44 43 43 40 38 39 35 36 35 33 30 27 26 27 26 20 22 23 24 21 16 13 11 24 30 27 31 38 30 21 16 7 9
73 73 72 70 68 67 63 60 57 56 53 50 49 46 45 40 40 38 36 36 34 32 31 29 27 28 26 21 24 26 23 18 13 13 18 18 23 21 34 29 24 17 10 8 9
70 72 72 71 69 67 65 63 62 61 58 57 51 48 46 43 42 40 38 36 34 33 32 28 28 28 25 26 24 26 19 17 16 20 20 18 16 19 23 17 17 15 13 5 15
63 66 70 70 69 67 65 63 65 66 63 58 52 49 48 45 44 41 39 38 36 36 31 31 30 29 26 29 25 24 18 16 16 18 19 21 14 16 15 17 11 7 8 8 12
55 59 63 66 67 67 65 64 69 68 63 59 56 54 51 47 44 42 40 39 38 37 34 30 32 27 28 28 25 25 18 16 17 18 21 13 11 15 7 5 15 14 21 16 15
47 51 56 59 64 64 64 67 70 68 64 60 60 56 50 49 44 42 40 40 39 38 36 35 31 33 32 29 30 25 21 17 19 20 17 10 9 10 15 17 19 24 30 23 23
40 47 48 52 58 60 62 71 72 67 62 62 58 58 55 50 46 44 43 41 40 40 39 35 35 36 31 33 30 28 21 20 21 22 19 9 9 9 13 22 24 30 25 25 29
37 41 43 48 52 57 65 73 71 66 63 60 59 61 60 55 49 46 46 44 42 41 40 37 38 34 35 33 29 27 26 22 24 23 22 15 12 16 16 18 26 28 28 33 39
33 31 37 42 49 57 66 71 68 66 66 62 63 67 63 55 52 48 47 49 45 42 41 38 38 37 36 34 32 30 26 26 27 25 22 15 14 17 20 24 26 22 33 35 38
30 34 40 46 50 56 58 60 60 62 64 62 64 63 61 58 54 51 50 49 44 43 43 39 38 37 37 35 31 31 31 30 28 27 24 17 17 18 24 26 25 27 30 39 43
34 37 42 45 48 53 54 54 57 58 64 66 65 64 62 60 59 58 52 48 45 42 43 41 39 38 37 33 34 36 35 32 29 29 25 24 22 28 30 30 35 33 35 41 42
27 31 36 36 43 49 55 55 56 58 60 63 66 66 64 64 64 60 54 52 46 44 45 42 44 40 34 35 35 37 38 33 33 30 27 25 25 30 33 36 38 31 36 39 41
24 32 31 35 39 44 47 48 49 53 56 62 65 66 63 71 66 56 51 50 47 46 46 44 44 43 39 37 35 33 41 37 35 31 28 28 28 28 30 35 36 34 38 41 40
Wind_Direction
227 229 231 232 234 237 238 238 240 244 247 249 248 251 254 259 262 265 266 266 265 276 282 286 289 289 288 292 294 300 308 312 317 323 319 317 316 318 331 334 330 319 314 312 312
227 229 232 234 236 238 240 242 243 243 246 249 250 254 259 261 263 263 264 266 265 273 279 283 286 288 288 283 292 302 312 312 315 320 312 320 331 327 335 341 325 324 321 304 287
229 231 232 234 236 238 239 242 244 246 246 248 251 252 256 260 266 263 260 260 259 269 274 280 284 285 284 289 318 333 344 322 314 326 315 315 348 325 327 343 353 340 317 310 290
227 229 232 235 236 237 239 241 243 246 247 250 253 255 258 262 260 261 259 256 256 264 269 277 280 281 274 294 315 336 15 300 282 311 259 315 345 340 348 357 22 7 356 335 303
227 228 230 232 236 237 239 241 243 245 247 251 255 258 260 261 258 256 253 255 253 256 263 270 270 270 282 308 294 280 143 160 325 275 285 306 331 334 345 324 347 349 349 335 303
228 228 229 231 234 237 238 240 242 244 246 250 254 257 257 254 250 245 246 250 249 251 255 262 267 270 281 283 289 269 235 242 262 253 275 292 310 329 344 332 339 338 341 332 303
228 229 229 231 232 234 237 239 241 242 245 247 250 252 250 248 241 240 243 247 245 250 252 261 264 277 285 279 265 235 243 233 237 256 267 273 288 313 323 331 333 335 335 314 311
227 228 230 230 230 232 234 235 236 239 242 243 245 248 245 244 240 239 238 243 248 249 251 255 262 270 275 271 259 264 253 243 234 250 257 262 277 311 327 342 346 340 339 324 333
230 229 229 230 231 232 233 234 236 237 239 241 242 243 239 238 236 234 235 239 244 248 252 255 262 267 268 263 263 260 261 266 250 254 254 260 276 291 330 350 336 351 357 334 326
233 232 231 232 232 232 233 233 234 235 236 237 238 237 235 231 231 229 232 239 243 247 253 255 260 262 266 266 261 255 272 265 250 249 251 257 265 273 348 356 354 308 359 1 352
233 233 233 232 232 233 232 231 231 233 235 235 237 237 236 229 228 231 234 238 243 248 252 257 260 266 265 264 265 269 272 269 242 248 255 251 257 281 292 11 335 300 317 343 359
232 233 232 233 233 233 233 232 231 233 234 235 237 234 232 229 226 230 234 239 244 248 251 255 263 267 260 256 257 274 271 263 257 255 247 247 252 287 255 188 219 265 285 328 333
234 233 233 233 233 234 234 235 234 235 235 233 235 233 234 231 230 230 232 239 245 248 249 254 261 262 261 259 256 274 271 244 249 264 266 245 243 291 221 218 225 247 277 316 323
234 235 234 233 233 234 233 232 231 234 233 231 235 232 236 232 233 236 234 240 244 247 250 252 256 256 259 262 275 260 239 248 239 248 248 248 258 269 215 214 246 251 262 273 282
236 235 236 235 234 233 234 234 232 233 235 231 234 231 235 232 233 235 236 236 240 245 247 247 250 255 259 264 269 257 247 242 251 264 268 251 263 269 242 232 250 266 265 276 303
237 237 236 236 235 235 234 233 233 231 232 232 233 232 233 233 234 235 235 237 240 243 246 244 245 247 254 255 260 258 259 265 274 261 251 236 244 227 235 241 245 246 262 240 277
237 237 236 235 235 235 234 234 233 232 230 231 229 232 233 233 233 234 235 236 237 240 242 245 247 248 250 256 257 256 246 262 276 272 256 252 240 233 229 229 231 231 244 246 207
238 236 235 234 233 233 233 232 233 231 230 231 232 232 232 232 234 234 235 236 237 240 240 242 241 243 247 258 263 255 240 252 263 267 257 256 260 252 234 232 237 222 274 271 288
237 236 234 232 231 231 230 229 232 232 230 229 231 232 233 234 234 234 235 237 237 239 238 239 243 245 249 258 266 264 247 250 257 261 262 274 275 252 246 198 188 218 247 256 290
235 234 232 231 229 227 227 228 230 230 229 226 228 233 233 235 237 240 238 238 239 240 241 239 242 244 248 257 253 251 248 256 261 256 268 274 271 271 266 253 217 219 214 245 254
233 232 229 228 225 224 224 227 229 229 228 226 226 231 232 233 232 234 238 238 239 239 240 241 243 247 251 249 247 252 244 249 257 263 272 255 248 242 235 230 240 213 233 240 242
235 232 227 225 223 222 223 227 227 227 225 225 224 230 232 231 232 231 235 237 236 239 239 238 243 244 246 249 246 242 244 248 260 266 277 272 248 244 253 247 228 242 246 253 254
237 234 232 228 225 223 224 227 225 223 224 223 222 226 230 231 235 235 233 236 235 236 238 236 239 241 243 242 246 246 245 244 249 256 266 275 268 243 248 243 247 258 250 260 263
232 227 225 222 218 221 226 230 228 226 226 226 227 227 228 231 235 237 236 238 238 238 238 237 236 240 242 244 248 250 247 243 243 257 266 267 242 246 259 258 258 257 251 251 254
227 227 226 223 221 221 219 222 225 223 222 224 226 229 229 229 232 234 235 235 239 238 242 240 240 238 241 243 243 246 250 251 252 253 258 260 256 240 237 248 255 259 264 248 261
232 234 234 231 227 221 220 218 218 222 222 222 226 227 229 231 232 233 231 232 232 234 239 240 241 241 242 242 242 245 253 254 255 256 257 254 250 248 248 253 262 262 265 276 283
224 233 230 230 229 224 221 220 219 219 223 222 224 227 229 233 232 234 233 233 233 235 237 238 241 241 242 244 244 247 250 252 252 255 256 255 252 253 259 263 266 272 276 279 283
Height
10960 10964 10968 10973 10977 10980 10984 10989 10992 10995 10997 11000 11003 11005 11007 11008 11009 11011 11012 11011 11006 11009 11010 11010 11010 11010 11010 11010 11008 11005 11006 11002 11000 10999 10995 10992 10990 10989 10988 10984 10981 10980 10978 10975 10972
10953 10957 10961 10966 10970 10974 10978 10982 10985 10989 10992 10994 10998 10999 11000 11002 11004 11006 11007 11006 11002 11004 11005 11006 11007 11007 11007 11005 11004 11004 11002 11000 10998 10995 10994 10990 10988 10986 10985 10981 10978 10977 10977 10976 10972
10947 10951 10955 10959 10963 10966 10970 10975 10979 10982 10986 10988 10991 10993 10994 10996 10999 11001 11002 11001 10998 11000 11001 11001 11002 11002 11004 11001 11001 10999 10998 10994 10994 10992 10991 10986 10985 10986 10985 10982 10979 10978 10977 10975 10972
10940 10945 10949 10952 10956 10960 10964 10968 10971 10975 10979 10982 10984 10986 10986 10989 10993 10995 10996 10996 10995 10996 10997 10998 10998 11001 11002 10999 10999 10999 10994 10990 10991 10989 10990 10986 10984 10985 10982 10981 10978 10976 10974 10970 10968
10934 10938 10942 10946 10950 10953 10957 10961 10965 10969 10972 10974 10976 10978 10979 10983 10986 10990 10991 10990 10992 10993 10992 10993 10995 10997 10999 10997 10994 10995 10993 10986 10983 10984 10984 10984 10982 10984 10981 10980 10980 10975 10973 10969 10965
10926 10930 10934 10939 10942 10946 10950 10954 10958 10961 10964 10968 10969 10971 10973 10976 10980 10983 10984 10984 10987 10989 10989 10989 10992 10995 10994 10993 10991 10990 10990 10986 10983 10982 10982 10982 10982 10983 10980 10979 10978 10975 10972 10968 10968
10918 10923 10927 10931 10935 10939 10943 10947 10950 10954 10958 10961 10963 10964 10968 10968 10975 10977 10978 10978 10981 10984 10985 10987 10987 10992 10991 10989 10987 10986 10985 10984 10982 10980 10981 10980 10980 10980 10978 10979 10976 10973 10971 10970 10971
10910 10915 10919 10923 10927 10932 10936 10940 10944 10948 10952 10954 10956 10958 10964 10964 10968 10971 10973 10974 10976 10979 10980 10983 10984 10989 10987 10984 10981 10981 10982 10982 10981 10981 10978 10978 10979 10978 10977 10978 10974 10973 10970 10969 10969
10902 10907 10910 10914 10919 10924 10928 10933 10938 10941 10945 10948 10949 10954 10957 10959 10962 10964 10969 10970 10970 10973 10976 10978 10979 10982 10983 10979 10979 10978 10977 10977 10978 10976 10972 10974 10976 10978 10979 10976 10975 10975 10972 10970 10969
10892 10897 10901 10906 10911 10916 10921 10926 10931 10934 10937 10939 10943 10947 10948 10954 10956 10960 10963 10965 10966 10968 10971 10973 10973 10975 10975 10976 10976 10973 10973 10971 10972 10969 10968 10970 10974 10976 10976 10975 10973 10971 10971 10969 10967
10881 10886 10892 10897 10902 10907 10913 10919 10923 10926 10929 10933 10937 10941 10943 10948 10952 10955 10958 10959 10961 10964 10966 10967 10967 10969 10973 10971 10967 10968 10968 10966 10966 10964 10966 10968 10972 10972 10975 10970 10969 10969 10967 10966 10965
10868 10874 10880 10886 10892 10898 10904 10911 10915 10920 10924 10927 10928 10933 10936 10941 10946 10949 10952 10954 10955 10959 10960 10961 10961 10964 10966 10968 10965 10961 10961 10959 10962 10962 10962 10964 10969 10969 10970 10967 10965 10966 10966 10965 10964
10854 10861 10868 10874 10880 10886 10895 10904 10909 10913 10916 10918 10921 10927 10930 10934 10938 10941 10945 10948 10950 10952 10954 10956 10956 10957 10957 10961 10962 10961 10956 10957 10960 10957 10959 10960 10962 10967 10964 10964 10964 10964 10963 10962 10963
10839 10847 10854 10860 10869 10876 10885 10891 10899 10902 10905 10912 10914 10921 10920 10928 10931 10935 10939 10941 10943 10944 10948 10952 10951 10951 10950 10957 10954 10955 10950 10951 10954 10957 10956 10956 10955 10958 10960 10963 10963 10962 10962 10961 10964
10824 10831 10839 10846 10856 10864 10872 10881 10890 10893 10897 10906 10905 10909 10912 10919 10923 10926 10933 10933 10935 10938 10942 10946 10947 10945 10946 10951 10947 10948 10948 10949 10952 10957 10955 10956 10953 10953 10951 10957 10959 10961 10961 10961 10962
10807 10815 10824 10831 10841 10850 10860 10869 10876 10881 10886 10891 10895 10901 10905 10912 10915 10920 10924 10926 10930 10932 10934 10939 10942 10941 10942 10946 10943 10942 10943 10946 10950 10950 10948 10949 10948 10950 10947 10952 10955 10957 10954 10957 10958
10790 10798 10807 10817 10827 10835 10847 10856 10863 10867 10874 10877 10887 10892 10898 10903 10907 10911 10916 10919 10922 10924 10928 10933 10935 10935 10937 10936 10939 10938 10942 10943 10941 10941 10941 10941 10943 10944 10945 10949 10950 10952 10951 10955 10951
10773 10781 10791 10801 10811 10822 10833 10843 10847 10850 10860 10870 10879 10885 10889 10895 10899 10904 10908 10912 10915 10916 10923 10925 10928 10929 10932 10930 10932 10934 10940 10939 10938 10935 10935 10935 10937 10936 10937 10937 10944 10942 10945 10950 10950
10758 10767 10776 10785 10797 10807 10819 10827 10827 10837 10849 10861 10868 10873 10879 10885 10891 10897 10900 10905 10908 10910 10915 10920 10919 10925 10924 10924 10927 10929 10935 10936 10935 10932 10930 10933 10933 10934 10935 10939 10938 10938 10939 10944 10946
10746 10753 10762 10772 10783 10794 10805 10808 10811 10820 10835 10849 10855 10862 10872 10877 10885 10889 10894 10897 10901 10903 10908 10911 10915 10915 10917 10920 10918 10923 10931 10932 10930 10926 10926 10928 10929 10934 10933 10933 10936 10935 10935 10938 10940
10735 10739 10750 10759 10768 10780 10788 10787 10793 10809 10825 10838 10850 10852 10859 10867 10874 10880 10884 10889 10893 10896 10899 10905 10906 10907 10913 10912 10915 10918 10923 10926 10924 10922 10924 10926 10927 10929 10929 10928 10927 10933 10934 10934 10934
10725 10731 10740 10747 10757 10765 10768 10768 10782 10800 10813 10825 10839 10841 10845 10855 10864 10871 10875 10879 10884 10888 10891 10896 10896 10902 10903 10907 10910 10913 10916 10920 10920 10920 10921 10924 10925 10924 10925 10927 10925 10923 10923 10925 10926
10718 10728 10732 10738 10746 10749 10751 10755 10771 10788 10797 10811 10818 10822 10832 10846 10853 10859 10866 10867 10873 10878 10882 10888 10890 10893 10896 10900 10904 10908 10913 10913 10913 10915 10919 10922 10921 10920 10919 10919 10919 10919 10921 10917 10914
10708 10712 10714 10718 10726 10732 10745 10754 10768 10782 10793 10802 10808 10815 10824 10836 10843 10849 10852 10858 10866 10872 10873 10880 10883 10886 10889 10894 10898 10900 10902 10905 10909 10911 10914 10916 10918 10915 10911 10912 10913 10913 10910 10907 10904
10695 10699 10703 10709 10717 10723 10732 10743 10753 10765 10773 10785 10797 10807 10815 10823 10830 10832 10842 10851 10860 10865 10867 10873 10876 10879 10883 10889 10891 10889 10892 10897 10902 10904 10907 10907 10908 10906 10905 10904 10902 10905 10905 10900 10899
10694 10697 10700 10708 10711 10716 10719 10728 10740 10754 10766 10775 10783 10791 10802 10809 10814 10821 10832 10839 10850 10855 10858 10863 10865 10872 10878 10880 10882 10884 10885 10890 10892 10895 10897 10898 10895 10894 10894 10895 10893 10899 10894 10892 10889
10687 10686 10693 10697 10701 10709 10716 10726 10735 10745 10755 10761 10768 10780 10793 10787 10797 10814 10827 10834 10841 10846 10847 10852 10856 10862 10868 10871 10875 10879 10874 10880 10883 10886 10888 10888 10889 10887 10888 10886 10883 10884 10883 10881 10881